SCP
0 0 0 0 0 0 0 0 0 0 0 0 0 0 0 0 1 1 1 1 1 2 2 2 2 2 2 1 1 1 1 1 1 1 1 1 1 1 1 1 0 0 0 0
0 0 0 0 -0 -0 0 0 0 0 0 0 0 0 0 0 0 1 1 1 1 1 2 2 2 1 1 1 1 1 1 1 1 1 1 1 1 1 1 1 0 0 0 0
0 0 0 -0 -0 -0 -0 0 0 0 0 0 0 0 0 0 0 1 1 1 1 1 1 2 1 1 1 1 1 1 1 1 1 1 1 1 1 1 1 1 0 0 0 0
0 0 0 -0 -0 -0 -0 0 0 0 0 0 0 0 0 0 0 0 1 1 1 1 1 1 1 1 1 1 1 1 1 1 1 1 1 1 0 0 1 1 0 0 0 0
0 0 0 0 0 -0 -0 0 0 0 0 0 0 0 0 0 0 0 0 1 1 1 1 1 1 1 1 1 1 1 1 1 1 1 0 0 0 0 0 1 0 0 0 0
-0 -0 -0 0 0 0 0 0 0 0 0 0 0 0 0 0 0 0 0 1 1 1 1 1 1 1 1 1 1 1 1 1 1 1 0 0 0 0 0 0 0 0 0 0
0 0 0 0 0 0 0 0 0 0 0 0 0 0 0 0 0 0 0 0 1 1 1 1 1 1 1 1 1 1 1 1 1 0 0 0 0 0 0 0 0 0 0 0
0 0 0 0 0 0 0 0 0 0 0 0 0 0 0 0 0 0 0 0 1 1 1 1 1 1 1 1 1 1 1 1 0 0 0 0 1 1 0 0 0 0 0 0
0 0 0 0 0 0 0 0 0 0 0 0 0 0 0 0 0 0 0 0 0 1 1 1 1 1 1 1 1 1 1 1 0 0 0 1 1 1 1 0 0 0 0 0
0 0 0 0 0 0 0 0 0 0 0 0 0 0 0 0 0 0 0 0 0 0 1 1 1 1 1 1 1 1 1 1 0 0 0 1 1 1 1 1 0 0 0 0
0 0 0 0 0 0 0 0 0 0 0 0 0 0 0 0 0 0 0 0 0 0 0 1 1 1 1 1 1 1 1 1 1 1 0 1 1 1 1 1 1 1 1 1
0 0 0 0 0 0 0 0 0 0 0 0 0 0 0 0 0 0 0 0 0 1 1 1 1 1 1 1 1 1 1 1 1 1 1 1 1 1 1 1 1 1 1 1
0 0 0 0 0 0 0 0 0 0 0 0 0 0 0 0 0 0 0 1 1 1 1 1 1 1 1 1 1 1 1 1 1 1 1 1 1 1 1 1 1 1 1 1
0 0 0 0 0 0 0 0 0 0 0 0 0 0 0 0 0 0 1 1 1 1 1 1 1 1 1 1 1 1 1 1 1 1 1 1 1 1 1 1 1 1 1 1
0 0 0 0 0 0 0 0 0 0 0 0 0 0 0 0 0 1 1 1 1 1 1 1 1 1 1 1 1 1 1 1 1 1 1 1 1 1 1 1 1 1 1 0
0 0 0 0 0 0 0 0 0 0 0 0 0 0 0 1 1 1 1 1 1 1 1 1 1 1 1 1 1 1 1 1 1 1 1 1 1 1 1 1 1 1 0 0
0 0 0 0 0 0 0 0 0 0 0 0 0 0 1 1 1 1 1 1 1 1 1 1 1 1 1 1 1 1 1 1 1 1 1 1 1 1 1 1 0 0 0 0
0 0 0 0 0 0 0 0 0 0 0 0 0 1 1 1 2 2 2 1 1 1 1 1 1 1 1 1 1 1 1 1 1 1 1 1 1 1 1 0 0 0 0 0
0 0 0 0 0 0 0 0 0 0 0 1 1 1 1 2 2 2 2 2 2 2 2 2 1 1 1 1 1 1 1 1 1 1 1 1 1 1 1 0 0 0 0 0
0 0 0 0 0 0 0 0 0 0 0 1 1 1 2 2 2 2 2 2 2 2 2 2 2 2 2 1 1 1 1 1 1 1 1 1 1 1 0 0 0 0 0 0
0 0 0 0 0 0 0 0 0 0 1 1 1 1 2 2 2 2 2 2 3 3 2 2 2 2 2 1 1 1 1 1 1 1 1 1 0 0 0 0 0 0 0 0
0 0 0 0 0 0 0 0 0 1 1 1 1 1 1 1 2 2 2 2 2 2 2 2 2 2 2 1 1 1 1 1 1 1 0 0 0 0 0 0 0 0 0 0
0 0 0 0 0 0 0 0 1 1 1 1 1 1 1 1 1 1 1 1 1 1 2 2 2 1 1 1 1 1 1 1 0 0 0 0 0 0 0 0 0 0 0 0
0 0 0 0 0 0 0 0 0 1 1 1 1 1 1 1 1 1 1 1 1 1 1 1 1 1 1 1 1 1 1 0 0 0 0 0 0 0 0 0 0 0 0 0
0 0 0 0 0 0 0 0 0 0 0 1 1 1 1 1 1 1 1 1 1 0 0 0 0 0 0 0 0 0 0 0 0 0 0 0 0 0 0 0 0 0 0 0
0 0 0 0 0 0 0 0 0 0 0 0 1 1 1 1 1 1 1 1 0 0 0 0 0 0 0 0 0 0 0 0 0 0 0 0 0 0 0 0 0 0 0 0
Wind_Speed
15 14 15 16 17 17 16 16 13 8 8 8 7 8 2 2 2 5 7 8 9 9 10 10 11 12 12 11 11 10 10 9 7 5 5 5 4 4 3 4 6 5 4 3
16 19 19 19 19 17 15 15 15 12 9 9 9 7 1 3 3 4 7 8 10 11 12 12 11 11 12 12 11 10 9 9 8 6 5 4 4 4 4 4 5 5 5 4
21 18 18 18 17 17 16 15 14 13 12 11 10 7 2 2 4 5 6 8 9 11 14 13 12 11 12 12 13 11 10 9 8 8 5 5 3 2 3 5 4 4 5 4
20 21 19 16 15 16 15 15 15 14 13 9 8 7 3 2 4 6 6 9 10 11 13 13 12 12 12 12 12 11 10 9 9 8 7 8 7 5 6 5 4 5 5 4
18 19 18 18 16 15 15 14 13 13 12 12 9 8 3 4 5 7 9 10 11 12 13 13 13 12 11 12 12 11 10 9 9 9 8 8 7 5 5 5 6 5 4 4
20 17 16 16 15 14 14 14 13 11 10 11 8 8 6 5 6 7 9 10 11 11 12 12 12 11 9 10 10 10 10 9 9 9 9 8 8 7 7 7 7 5 4 4
20 19 17 14 14 14 13 11 9 9 6 7 8 8 6 5 6 7 10 11 11 11 12 12 12 11 10 10 10 10 11 10 10 9 8 8 8 7 7 7 7 6 5 5
17 16 19 17 15 13 13 14 12 11 7 5 3 5 5 2 4 7 10 11 11 11 11 12 12 11 10 10 10 10 11 10 10 9 8 7 7 6 6 6 6 6 4 5
13 12 13 15 16 17 16 14 15 14 13 11 6 5 3 1 3 6 10 10 10 10 11 11 12 12 10 10 9 10 10 10 10 10 8 7 7 7 7 7 6 5 4 5
17 13 9 8 10 14 16 14 9 9 10 10 5 1 1 4 4 7 9 10 10 10 11 11 11 11 11 10 9 9 10 10 9 9 8 8 8 7 6 6 6 5 4 4
15 14 12 10 11 13 13 14 12 9 9 8 6 2 3 5 5 5 8 10 10 10 10 10 10 10 10 10 10 9 9 9 9 9 8 7 7 7 6 5 5 5 4 4
10 11 12 13 11 13 13 13 12 10 9 8 7 2 6 6 5 4 7 10 10 10 10 10 9 9 9 10 10 9 9 9 8 7 7 6 7 7 7 6 5 5 4 4
6 8 11 13 12 11 11 12 12 11 9 9 9 2 6 5 2 1 5 8 10 9 9 10 9 7 7 7 8 9 9 9 8 8 7 7 7 7 7 6 6 5 4 4
5 9 12 13 5 4 7 11 11 11 10 10 9 2 4 4 4 2 5 6 9 9 8 9 8 7 6 5 5 7 8 8 8 7 7 6 6 6 6 5 5 4 4 4
7 11 14 16 12 8 7 9 12 14 14 12 8 5 4 4 4 4 5 6 7 9 9 9 8 7 6 6 5 6 6 7 7 7 7 7 6 5 5 5 5 5 4 4
7 9 12 15 14 9 9 11 14 17 16 12 10 8 3 6 5 5 6 7 8 8 9 9 9 8 6 6 6 6 6 6 6 7 7 7 6 6 5 5 5 5 4 3
7 7 11 13 14 13 13 14 16 16 12 11 9 5 3 4 5 5 6 7 8 9 9 9 8 7 6 6 6 6 6 6 6 6 5 6 6 6 5 5 5 5 5 5
7 7 7 12 14 16 10 9 12 11 7 6 4 2 1 6 6 5 5 5 6 7 8 8 8 7 7 7 7 7 7 7 7 6 6 6 6 6 6 6 6 6 6 7
7 6 8 10 13 14 11 8 9 9 7 6 5 4 4 7 7 6 7 8 6 7 9 8 8 8 8 8 9 10 10 9 9 8 7 7 8 8 8 9 8 8 8 8
6 5 8 10 11 11 5 5 7 8 5 7 8 6 2 3 3 4 7 10 10 10 9 8 9 10 11 10 10 11 10 10 10 9 10 10 9 9 10 10 9 8 8 8
7 8 9 11 12 8 5 7 8 6 3 8 9 7 5 2 5 8 10 12 12 12 10 10 11 11 10 10 11 12 11 11 10 10 11 11 10 10 10 9 8 8 8 9
5 6 7 8 10 4 8 6 5 6 8 8 7 6 7 9 11 12 12 12 11 11 11 11 11 12 10 11 12 13 11 10 10 11 11 10 9 9 9 8 7 8 7 8
2 3 4 3 2 4 7 6 7 6 7 7 5 5 7 7 11 13 12 12 11 11 11 11 12 13 11 10 11 13 10 10 10 11 11 10 11 9 8 8 7 5 4 5
2 2 4 4 2 4 6 7 8 8 7 6 3 3 6 8 12 14 12 12 12 11 11 11 13 13 12 11 11 11 10 10 11 11 10 9 9 10 10 8 8 8 7 6
4 3 4 6 5 6 6 8 8 7 6 5 3 4 7 11 14 14 13 12 12 11 11 12 12 12 12 11 11 10 9 9 9 9 9 10 11 11 10 10 9 9 9 8
3 3 3 3 4 5 6 8 8 5 3 4 6 7 8 12 15 15 14 12 12 12 11 11 12 12 12 11 11 9 8 7 7 7 7 7 8 8 8 9 10 15 11 13
Wind_Direction
222 234 242 246 249 259 275 288 292 284 279 284 291 292 263 158 197 164 157 156 158 153 144 141 147 150 152 154 158 161 163 162 162 164 165 160 157 154 149 143 144 155 149 144
232 233 243 256 266 270 273 280 284 288 289 290 292 289 272 155 209 176 164 162 160 153 148 147 151 158 161 163 164 165 170 168 167 169 170 166 159 166 151 134 144 152 150 158
231 241 239 242 257 267 269 269 274 284 287 281 291 286 267 173 183 169 169 158 160 161 157 158 162 167 168 168 171 173 173 170 170 168 167 160 149 161 137 138 156 161 158 170
237 246 253 253 252 257 263 265 271 277 281 283 286 285 259 223 200 180 175 162 166 158 156 159 165 170 175 172 171 171 168 170 171 174 176 169 171 173 164 160 155 158 167 167
237 240 247 254 257 258 265 271 274 279 284 282 285 287 238 194 193 194 180 167 160 156 158 161 168 174 175 173 171 168 169 173 176 180 180 182 178 171 163 154 149 161 169 174
255 251 241 248 253 250 259 268 273 275 278 276 284 282 262 202 178 171 164 151 151 154 156 159 165 168 171 171 168 167 166 174 179 181 183 191 183 178 167 159 158 172 166 181
247 252 249 243 250 247 241 249 256 252 252 266 295 275 257 183 155 156 143 141 146 151 156 160 166 168 171 173 170 170 169 174 178 182 187 191 186 181 172 169 170 183 174 178
233 235 234 232 234 247 243 241 249 265 267 266 260 260 274 126 132 130 132 138 147 155 156 160 164 163 169 173 173 172 172 173 177 181 186 186 178 179 178 184 179 193 191 176
251 242 227 218 221 229 245 246 252 263 267 265 223 218 257 183 160 145 139 140 148 149 150 158 161 163 168 173 176 177 172 174 181 183 180 179 180 189 184 176 188 194 191 163
257 275 251 211 219 227 240 250 255 261 274 280 271 304 303 262 209 153 144 144 144 146 152 155 159 163 168 171 171 170 169 176 179 180 182 180 181 189 184 179 189 190 183 157
243 262 265 232 215 230 223 238 253 271 273 278 289 270 206 239 251 182 152 145 145 147 146 150 155 161 165 168 169 167 167 170 176 181 184 178 177 182 182 185 184 180 176 160
245 248 257 256 238 234 238 233 236 248 267 274 281 233 166 184 231 223 151 142 140 141 141 143 145 151 161 167 169 169 170 173 176 178 177 179 175 175 179 183 179 176 175 179
300 260 250 250 247 232 245 244 244 247 256 264 270 207 155 148 143 221 130 136 134 137 137 136 138 144 153 160 165 169 172 173 174 174 174 173 173 175 178 179 175 173 180 189
293 266 261 263 275 291 273 275 275 266 256 260 269 218 167 163 158 189 134 135 138 137 135 136 135 135 135 140 148 157 164 165 169 167 167 170 173 174 172 168 161 162 174 176
261 258 258 267 267 252 254 272 278 272 268 272 274 259 190 174 179 157 149 147 141 138 138 133 131 126 126 130 136 138 150 156 160 159 166 171 169 161 154 155 152 157 166 173
236 270 276 271 269 263 258 249 255 261 263 269 272 273 200 166 170 156 158 158 155 146 138 133 129 127 127 129 132 132 135 142 149 156 163 157 155 154 153 153 155 150 144 135
246 249 264 268 271 269 254 250 253 254 261 272 273 277 166 159 145 148 159 163 156 141 134 128 122 121 122 122 123 125 123 124 129 133 138 140 142 139 139 141 128 123 121 110
250 257 263 266 270 265 273 290 282 275 277 305 308 322 137 132 122 104 100 112 118 125 123 119 120 120 122 120 118 114 111 110 109 104 105 112 113 114 110 102 100 94 89 87
241 241 253 260 260 262 268 283 298 293 300 345 344 353 22 108 121 101 92 98 108 106 108 110 114 116 111 109 107 103 98 95 92 88 85 92 103 105 102 97 91 88 87 84
213 213 241 251 261 266 292 335 329 301 270 15 11 4 63 155 177 119 106 106 103 97 95 104 107 105 98 96 99 98 94 89 86 84 82 81 86 93 95 95 95 94 94 93
216 220 234 248 256 261 328 330 310 288 360 13 11 9 15 41 70 101 99 96 93 93 95 96 97 97 96 97 95 92 88 87 86 86 86 84 85 88 89 90 96 98 96 94
237 238 236 244 249 248 16 2 2 6 354 356 1 22 54 80 97 103 102 98 95 96 96 95 94 94 93 96 97 94 91 92 92 90 88 87 86 88 91 91 91 96 105 108
271 299 297 293 308 22 12 3 356 350 339 338 359 49 91 99 111 109 107 104 98 94 92 92 94 94 90 88 94 97 96 96 94 91 87 85 82 78 82 88 91 94 95 98
274 306 300 305 303 351 348 350 350 347 339 336 357 95 110 119 122 117 112 106 103 98 96 95 93 93 92 90 91 92 93 94 95 94 92 90 85 75 61 57 56 52 47 58
312 309 284 276 307 323 343 354 346 345 351 358 50 99 115 123 121 119 114 109 104 100 98 96 96 95 93 90 90 91 94 96 99 99 97 92 85 83 74 65 54 62 53 54
321 333 308 318 350 333 333 342 345 355 28 63 89 92 104 119 118 116 110 108 105 103 102 101 99 98 96 92 88 86 88 91 98 105 108 109 108 106 104 99 80 54 63 66